Regional Weather Roundup
Issued by NWS Green Bay, WI

Home | Current Version | Previous Version | Text Only | Print | Product List | Glossary On
Versions: 1 2 3 4 5 6 7 8 9 10 11 12 13 14 15 16 17 18 19 20 21 22 23 24 25 26 27 28 29 30 31 32 33 34 35 36 37 38 39 40 41 42 43 44 45 46 47 48 49 50
033
ASUS43 KGRB 091411
RWRGRB

NORTH-CENTRAL AND NORTHEAST WISCONSIN REGIONAL WEATHER ROUNDUP
NATIONAL WEATHER SERVICE GREEN BAY WI
800 AM CST TUE FEB 09 2016

WIZ005-009-010>012-018-019-091500-
NORTH CENTRAL WISCONSIN

CITY           SKY/WX    TMP DP  RH WIND       PRES   REMARKS
IRONWOOD       CLOUDY    10   7  85 N15G21    29.87S VSB 1/2 WCI  -6
MANITOWISH WTR LGT SNOW   9   5  82 N8        29.82R WCI  -3
ARBOR VITAE    CLOUDY    11   6  78 N16       29.80S HAZE    WCI  -5
EAGLE RIVER    LGT SNOW   9   2  73 N13G22    29.78R WCI  -6
LAND O LAKES   LGT SNOW  10   5  82 N12G18    29.79R WCI  -5
RHINELANDER    CLOUDY    10   2  69 N10G22    29.79R WCI  -4
PHILLIPS       CLOUDY     7   1  79 NW10G18   29.85S WCI  -8
ANTIGO         CLOUDY    10   4  78 N16       29.77R WCI  -8
TOMAHAWK       LGT SNOW   9   4  82 NW9       29.82R WCI  -5
MERRILL        LGT SNOW   9   5  81 NW8       29.83R WCI  -3
$$

WIZ013-073-091500-
NORTHEAST WISCONSIN

CITY           SKY/WX    TMP DP  RH WIND       PRES   REMARKS
IRON MOUNTAIN  LGT SNOW  11   3  70 N16       29.76S VSB 1   WCI  -6
MARINETTE      CLOUDY    14   5  67 NW13G20   29.78S WCI   0
OCONTO         CLOUDY    13   5  68 NW9G17    29.81R WCI   1
$$

WIZ017-030-035>037-045-091500-
CENTRAL WISCONSIN

CITY           SKY/WX    TMP DP  RH WIND       PRES   REMARKS
MEDFORD        LGT SNOW   5   1  81 NW15      29.83S WCI -13
WAUSAU         LGT SNOW  11   5  77 NW12      29.81R WCI  -3
MOSINEE        LGT SNOW   9   5  85 NW12G18   29.83R WCI  -6
MARSHFIELD     LGT SNOW   6  -2  69 NW20      29.85R WCI -14
WISC RAPIDS    LGT SNOW   7   0  73 NW15G25   29.89R WCI -10
STEVENS POINT  LGT SNOW   7   2  80 NW6       29.85R WCI  -3
WAUPACA        CLOUDY    13   5  71 NW12G18   29.84S HAZE    WCI  -1
SHAWANO        CLOUDY    14   8  76 W5        29.82R WCI   7
CLINTONVILLE   LGT SNOW  12   7  79 NW9       29.82S WCI   0
WAUTOMA        CLOUDY    10   3  73 NW12G20   29.87R WCI  -5
$$

WIZ038-039-048-051-091500-
FOX VALLEY

CITY           SKY/WX    TMP DP  RH WIND       PRES   REMARKS
NWS GREEN BAY  LGT SNOW  13   8  81 NW13      29.81R WCI  -2
APPLETON       LGT SNOW  10   5  79 NW14      29.79R WCI  -5
OSHKOSH        CLOUDY    11   4  73 NW15      29.81S WCI  -5
FOND DU LAC    FLURRIES  11   5  77 NW16      29.82R WCI  -6
$$

WIZ022-050-052-091500-
EAST CENTRAL WISCONSIN

CITY           SKY/WX    TMP DP  RH WIND       PRES   REMARKS
EPHRAIM        CLOUDY    15   7  71 NW16G23   29.74S WCI  -1
STURGEON BAY   CLOUDY    14   3  62 NW18      29.78S WCI  -3
MANITOWOC      FLURRIES  14   9  80 NW16G22   29.79R WCI  -2
SHEBOYGAN      CLOUDY    13   6  74 NW13      29.79R WCI  -2
$$

LMZ563-521-522-541>543-091500-
LAKESHORE

STATION/POSITION TIME  TEMP    WIND        PRES    VSBY  WAVE
                       AIR SEA DIR/SP/G                  HT/PER
                 (UTC) (F)     (DEG/KT/KT) (MB)    (MI)  (FT/S)
SHEBOYGAN LKSHOR 1400   14     310/ 14/ 18 1010.1R
KEWAUNEE LKSHORE 1300   15     330/ 14/ 19 1007.1R
ALGOMA MARINA    1311          340/ 15/ 21   N/A
CHAMBERS ISLAND  1300   15     300/ 17/ 24 1008.1R
MENOMINEE LKSHOR 1300   14     310/ 15     1007.4R
$$




USA.gov is the U.S. government's official web portal to all federal, state and local government web resources and services.